This is the latest recevied weather packets stored in our database for station/object AC1IX. If no packets are shown the sender has not sent any weather packets the latest 10 day(s).
| Time | Temp. | Humidity | Pressure | Rain* | Wind** | Luminosity | Snow |
|---|---|---|---|---|---|---|---|
| 1777321871 | 21.67° C | 32% | 1023 hPa | 0 mm | - | 153 W/m² | - |
| 1777321568 | 21.67° C | 32% | 1023 hPa | 0 mm | - | 109 W/m² | - |
| 1777321265 | 21.67° C | 31% | 1022.8 hPa | 0 mm | - | 105 W/m² | - |
| 1777320962 | 21.67° C | 31% | 1022.9 hPa | 0 mm | - | 99 W/m² | - |
| 1777320660 | 21.67° C | 31% | 1023.3 hPa | 0 mm | - | 112 W/m² | - |
| 1777320357 | 21.67° C | 31% | 1023 hPa | 0 mm | - | 111 W/m² | - |
| 1777320054 | 22.22° C | 32% | 1023 hPa | 0 mm | - | 131 W/m² | - |
| 1777319751 | 22.22° C | 30% | 1023.1 hPa | 0 mm | - | 152 W/m² | - |
| 1777319448 | 22.22° C | 31% | 1023.1 hPa | 0 mm | - | 148 W/m² | - |
| 1777319145 | 22.22° C | 29% | 1023.1 hPa | 0 mm | - | 140 W/m² | - |
| 1777318842 | 22.78° C | 28% | 1023.2 hPa | 0 mm | - | 130 W/m² | - |
| 1777318538 | 21.67° C | 30% | 1023 hPa | 0 mm | - | 111 W/m² | - |
| 1777318235 | 22.78° C | 30% | 1023 hPa | 0 mm | - | 101 W/m² | - |
| 1777317932 | 22.22° C | 30% | 1023.2 hPa | 0 mm | - | 141 W/m² | - |
| 1777317629 | 22.22° C | 31% | 1023.3 hPa | 0 mm | - | 294 W/m² | - |
| 1777317327 | 23.33° C | 29% | 1023.5 hPa | 0 mm | - | 74 W/m² | - |
| 1777317021 | 23.89° C | 28% | 1023.5 hPa | 0 mm | - | 636 W/m² | - |
| 1777316720 | 24.44° C | 28% | 1023.5 hPa | 0 mm | - | 647 W/m² | - |
| 1777316415 | 23.89° C | 27% | 1023.5 hPa | 0 mm | - | 656 W/m² | - |
| 1777316112 | 23.33° C | 28% | 1023.5 hPa | 0 mm | - | 683 W/m² | - |
| 1777315811 | 22.78° C | 28% | 1023.5 hPa | 0 mm | - | 707 W/m² | - |
| 1777315509 | 23.89° C | 27% | 1023.8 hPa | 0 mm | - | 724 W/m² | - |
| 1777315207 | 23.89° C | 28% | 1023.6 hPa | 0 mm | - | 684 W/m² | - |
| 1777314903 | 23.33° C | 27% | 1023.7 hPa | 0 mm | - | 670 W/m² | - |
| 1777314599 | 22.78° C | 29% | 1023.7 hPa | 0 mm | - | 669 W/m² | - |
* Rain latest hour (hover to see other rain measurements)
** Current wind speed in m/s (hover to see current wind gust speed)